                ,  0.730,  0.930,  1.130,  1.330,  1.530,  1.730,  1.930,  2.130,  2.330,  2.530,  2.730,  2.930,  3.130,  3.330,  3.530,  3.730,  3.930,  4.130,  4.330,  4.530,  4.730,  4.930,  5.130,  5.330,  5.530,  5.730,  5.930,  6.130,  6.330,  6.530,  6.730,  6.930,  7.130,  7.330,  7.530,  7.730,  7.930,  8.130,  8.330,  8.530,  8.730,  8.930,  9.130,  9.330,  9.530,  9.730,  9.930
1999/09/16 00:00,  999.0,  999.0,  999.0,  999.0,  999.0,  999.0,  999.0,  999.0,  999.0,  999.0,  999.0,  999.0,  999.0,  999.0,  999.0,  999.0,  999.0,  999.0,  999.0,  999.0,  999.0,  999.0,  999.0,  999.0,  999.0,  999.0,  999.0,  999.0,  999.0,  999.0,  999.0,  999.0,  999.0,  999.0,  999.0,  999.0,  999.0,  999.0,  999.0,  999.0,  999.0,  999.0,  999.0,  999.0,  999.0,  999.0,  999.0
1999/09/16 00:10,   -1.3,  999.0,  999.0,   -0.2,    0.2,   -0.3,   -0.3,  999.0,    0.0,    0.7,    0.4,    0.5,  999.0,  999.0,    0.1,    0.0,   -0.1,    0.0,  999.0,  999.0,  999.0,  999.0,  999.0,  999.0,  999.0,  999.0,  999.0,  999.0,  999.0,  999.0,  999.0,  999.0,  999.0,  999.0,  999.0,   -0.2,  999.0,  999.0,  999.0,  999.0,  999.0,  999.0,  999.0,  999.0,  999.0,  999.0,  999.0
1999/09/16 00:20,    0.1,  999.0,   -0.2,    0.2,    0.2,   -0.1,    0.3,    0.3,    0.2,    0.2,    0.1,    0.2,   -0.1,    0.1,  999.0,  999.0,  999.0,  999.0,  999.0,  999.0,    0.3,  999.0,  999.0,  999.0,  999.0,  999.0,  999.0,  999.0,   -0.1,  999.0,  999.0,  999.0,  999.0,   -0.1,  999.0,  999.0,  999.0,  999.0,  999.0,  999.0,  999.0,  999.0,  999.0,  999.0,  999.0,  999.0,  999.0
1999/09/16 00:30,  999.0,   -0.5,   -0.7,   -0.1,   -0.2,   -0.2,    0.3,    0.0,  999.0,   -0.2,   -0.1,    0.3,    0.1,    0.1,    0.1,   -0.1,   -0.1,   -0.1,  999.0,  999.0,   -0.1,   -0.1,  999.0,  999.0,  999.0,  999.0,  999.0,  999.0,  999.0,  999.0,  999.0,  999.0,  999.0,  999.0,  999.0,  999.0,  999.0,  999.0,  999.0,  999.0,   -0.7,   -0.9,   -0.8,   -0.7,   -0.6,   -0.2,   -0.2
1999/09/16 00:40,  999.0,  999.0,    0.1,   -0.2,    0.1,  999.0,   -0.1,    0.1,  999.0,  999.0,   -0.0,  999.0,    0.1,  999.0,  999.0,  999.0,  999.0,   -0.0,  999.0,  999.0,   -0.1,  999.0,  999.0,  999.0,  999.0,  999.0,  999.0,  999.0,  999.0,  999.0,  999.0,  999.0,  999.0,  999.0,  999.0,  999.0,  999.0,  999.0,  999.0,  999.0,  999.0,   -0.8,  999.0,   -0.8,   -0.7,   -0.5,   -0.4
1999/09/16 00:50,   -0.1,   -0.1,    0.5,    0.2,   -0.0,  999.0,    0.1,    0.1,   -0.1,    0.1,   -0.1,   -0.2,   -0.3,  999.0,   -0.3,   -0.4,   -0.3,  999.0,  999.0,  999.0,   -0.1,  999.0,  999.0,  999.0,  999.0,  999.0,  999.0,  999.0,  999.0,  999.0,  999.0,  999.0,  999.0,  999.0,  999.0,  999.0,  999.0,  999.0,  999.0,  999.0,  999.0,  999.0,  999.0,  999.0,  999.0,  999.0,  999.0
1999/09/16 01:00,    0.3,    0.2,    0.3,    0.3,    0.5,   -0.1,   -0.1,    0.0,    0.1,   -0.1,  999.0,   -0.2,   -0.2,   -0.1,    0.0,    0.1,    0.1,  999.0,    0.4,  999.0,    0.2,  999.0,  999.0,  999.0,    0.3,    0.2,  999.0,  999.0,  999.0,  999.0,  999.0,  999.0,  999.0,    0.2,   -0.6,  999.0,  999.0,  999.0,  999.0,  999.0,  999.0,  999.0,  999.0,  999.0,  999.0,    0.1,    0.1
1999/09/16 01:10,    0.5,    0.5,    0.5,    0.1,    0.5,    0.4,    0.1,   -0.1,  999.0,   -0.2,  999.0,   -0.3,   -0.0,   -0.2,    0.3,    0.3,    0.3,  999.0,    0.3,  999.0,  999.0,  999.0,  999.0,  999.0,  999.0,  999.0,  999.0,  999.0,  999.0,  999.0,  999.0,  999.0,  999.0,  999.0,   -0.4,  999.0,  999.0,  999.0,  999.0,  999.0,  999.0,  999.0,  999.0,  999.0,  999.0,   -0.6,  999.0
1999/09/16 01:20,   -0.1,  999.0,   -0.5,   -0.7,  999.0,    0.1,   -0.4,   -0.3,   -0.2,   -0.4,   -0.1,  999.0,    0.2,    0.2,    0.3,   -0.0,    0.4,    0.1,    0.0,  999.0,  999.0,  999.0,  999.0,  999.0,  999.0,  999.0,  999.0,  999.0,  999.0,  999.0,    0.1,  999.0,  999.0,   -0.1,   -0.2,  999.0,  999.0,  999.0,  999.0,  999.0,  999.0,   -0.7,  999.0,  999.0,  999.0,  999.0,  999.0
1999/09/16 01:30,    0.2,   -0.0,   -0.9,  999.0,   -0.2,   -0.1,    0.4,    0.0,    0.1,   -0.0,  999.0,  999.0,  999.0,    0.2,    0.2,    0.1,    0.2,  999.0,    0.1,  999.0,  999.0,  999.0,  999.0,  999.0,  999.0,    0.0,  999.0,    0.2,  999.0,  999.0,  999.0,  999.0,   -0.0,    0.3,    0.1,  999.0,  999.0,  999.0,  999.0,  999.0,  999.0,  999.0,  999.0,  999.0,  999.0,  999.0,  999.0
1999/09/16 01:40,   -0.2,    0.2,    0.3,   -0.1,    0.1,    0.3,   -0.0,    0.4,    0.3,   -0.2,  999.0,  999.0,  999.0,    0.0,    0.0,   -0.2,    0.1,    0.1,  999.0,  999.0,  999.0,  999.0,  999.0,  999.0,  999.0,  999.0,  999.0,  999.0,  999.0,  999.0,  999.0,  999.0,  999.0,    0.0,  999.0,  999.0,  999.0,  999.0,  999.0,  999.0,  999.0,   -0.8,  999.0,  999.0,  999.0,  999.0,  999.0
1999/09/16 01:50,  999.0,  999.0,  999.0,   -0.3,  999.0,  999.0,  999.0,    0.2,    0.1,    0.3,  999.0,  999.0,  999.0,   -0.0,   -0.0,    0.0,   -0.1,  999.0,  999.0,  999.0,  999.0,   -0.2,  999.0,  999.0,  999.0,  999.0,  999.0,    0.2,    0.1,  999.0,  999.0,  999.0,   -0.1,  999.0,  999.0,  999.0,  999.0,  999.0,  999.0,  999.0,  999.0,  999.0,  999.0,  999.0,  999.0,  999.0,  999.0
1999/09/16 02:00,    0.3,   -0.4,  999.0,   -0.3,   -0.2,    0.3,    0.3,    0.2,    0.2,    0.2,  999.0,  999.0,  999.0,   -0.2,   -0.2,  999.0,  999.0,    0.0,  999.0,   -0.0,  999.0,  999.0,  999.0,  999.0,  999.0,  999.0,  999.0,  999.0,  999.0,   -0.2,  999.0,  999.0,  999.0,  999.0,  999.0,  999.0,  999.0,  999.0,  999.0,  999.0,  999.0,  999.0,  999.0,  999.0,  999.0,  999.0,  999.0
1999/09/16 02:10,   -0.2,    0.2,   -0.2,    0.3,    0.2,  999.0,    0.2,    0.2,    0.4,    0.1,   -0.0,   -0.1,  999.0,    0.1,    0.2,    0.2,    0.1,  999.0,    0.2,  999.0,    0.0,  999.0,  999.0,  999.0,    0.0,  999.0,  999.0,  999.0,    0.2,    0.1,  999.0,  999.0,    0.1,    0.1,   -0.0,  999.0,  999.0,  999.0,  999.0,  999.0,  999.0,  999.0,  999.0,   -0.8,   -0.7,   -0.8,   -0.6
1999/09/16 02:20,  999.0,  999.0,   -0.5,   -0.2,    0.1,  999.0,   -0.3,  999.0,   -0.1,    0.2,    0.0,  999.0,  999.0,   -0.1,  999.0,    0.0,   -0.0,  999.0,  999.0,  999.0,    0.3,  999.0,  999.0,  999.0,  999.0,    0.1,  999.0,  999.0,    0.3,    0.4,  999.0,  999.0,    0.1,  999.0,  999.0,  999.0,  999.0,  999.0,  999.0,  999.0,  999.0,  999.0,  999.0,   -0.4,  999.0,   -0.3,  999.0
1999/09/16 02:30,    0.4,    0.3,    0.2,  999.0,    0.3,  999.0,    0.1,  999.0,    0.1,   -0.1,   -0.3,   -0.0,   -0.1,   -0.1,    0.0,    0.0,  999.0,    0.2,  999.0,  999.0,  999.0,  999.0,  999.0,  999.0,  999.0,  999.0,  999.0,  999.0,  999.0,    0.2,  999.0,    0.1,   -0.1,  999.0,  999.0,  999.0,  999.0,  999.0,  999.0,   -0.2,   -0.3,   -0.8,   -0.7,   -0.7,  999.0,   -0.8,   -0.5
1999/09/16 02:40,   -0.7,    0.6,   -0.3,   -0.3,  999.0,   -0.2,   -0.4,    0.0,   -0.3,   -0.4,   -0.3,    0.2,  999.0,  999.0,  999.0,   -0.7,   -0.1,  999.0,  999.0,  999.0,   -0.1,  999.0,  999.0,   -0.1,   -0.3,   -0.3,   -0.7,  999.0,   -0.4,   -0.0,   -0.6,   -0.4,   -0.3,   -0.3,  999.0,   -0.5,   -0.5,   -0.2,   -0.3,   -0.4,   -0.2,   -0.7,   -0.7,   -0.6,   -0.6,   -0.7,   -0.6
1999/09/16 02:50,    0.2,    0.4,    0.1,    0.0,    0.1,  999.0,   -0.0,   -0.3,   -0.3,   -0.0,  999.0,  999.0,  999.0,  999.0,    0.0,    0.1,   -0.1,   -0.0,  999.0,  999.0,    0.0,  999.0,  999.0,  999.0,  999.0,  999.0,  999.0,    0.1,   -0.1,    0.2,  999.0,  999.0,  999.0,  999.0,  999.0,  999.0,   -0.8,   -0.9,   -0.7,   -0.6,   -0.7,   -0.7,   -0.9,   -0.8,   -0.8,   -0.8,   -0.5
1999/09/16 03:00,   -0.2,   -0.3,  999.0,  999.0,   -0.0,   -0.1,   -0.0,   -0.0,   -0.0,   -0.2,  999.0,    0.1,   -0.2,   -0.1,    0.1,   -0.2,  999.0,  999.0,   -0.1,   -0.0,  999.0,  999.0,  999.0,  999.0,  999.0,  999.0,  999.0,    0.1,  999.0,    0.1,   -0.0,   -0.2,   -0.9,  999.0,  999.0,    0.0,   -1.1,   -1.0,   -0.8,   -0.9,   -0.7,   -0.8,   -1.0,   -0.9,   -0.8,   -0.9,   -0.9
1999/09/16 03:10,    0.2,    0.7,  999.0,    0.2,    0.1,  999.0,   -0.1,    0.1,   -0.3,    0.4,    0.1,    0.2,    0.3,    0.5,   -0.1,  999.0,    0.1,  999.0,   -0.0,  999.0,  999.0,  999.0,  999.0,    0.2,  999.0,  999.0,  999.0,  999.0,    0.8,  999.0,   -0.1,    0.6,    0.2,   -1.0,   -1.1,   -1.0,   -1.1,   -1.1,   -0.9,   -0.4,  999.0,   -0.9,   -0.9,   -1.0,   -0.7,   -0.8,   -0.9
1999/09/16 03:20,  999.0,    0.3,    0.2,   -0.0,    0.1,    0.0,    0.0,    0.0,    0.2,    0.2,    0.2,    0.1,   -0.3,   -0.1,  999.0,   -0.3,   -0.3,   -0.1,  999.0,  999.0,   -0.3,  999.0,  999.0,  999.0,  999.0,  999.0,  999.0,    0.4,    0.1,   -0.5,   -0.6,   -1.4,   -1.3,   -1.4,   -1.3,   -1.3,   -1.2,   -0.6,   -0.3,   -0.1,  999.0,  999.0,  999.0,  999.0,  999.0,  999.0,  999.0
1999/09/16 03:30,   -0.3,   -0.3,   -0.3,   -0.2,   -0.2,   -0.3,   -0.2,   -0.0,   -0.2,   -0.2,  999.0,  999.0,    0.0,   -0.3,   -0.9,   -0.4,   -0.1,  999.0,  999.0,   -0.0,   -0.1,  999.0,   -0.2,  999.0,   -0.4,   -0.1,   -1.0,   -1.3,   -1.3,   -1.1,   -0.9,   -0.7,   -0.7,   -0.8,   -0.8,   -0.6,   -0.6,   -0.3,   -0.4,   -0.2,   -0.5,   -0.2,  999.0,  999.0,  999.0,  999.0,  999.0
1999/09/16 03:40,    0.7,    0.8,  999.0,   -0.1,   -0.2,   -0.0,    0.0,   -0.0,   -0.1,    0.1,   -0.0,   -0.1,   -0.1,   -0.0,    0.4,    0.2,  999.0,  999.0,  999.0,   -0.1,    0.3,  999.0,    0.3,  999.0,  999.0,    0.2,    0.3,   -0.5,   -0.6,   -0.6,   -0.6,   -0.7,   -1.1,  999.0,   -1.0,   -1.2,   -0.5,   -0.3,   -0.0,  999.0,  999.0,  999.0,  999.0,  999.0,  999.0,  999.0,  999.0
1999/09/16 03:50,    0.7,   -0.4,    0.0,  999.0,   -0.0,  999.0,   -0.2,   -0.4,   -0.5,    0.0,   -0.1,   -0.0,    0.0,   -0.1,  999.0,  999.0,    0.0,  999.0,  999.0,    0.2,    0.2,  999.0,  999.0,  999.0,  999.0,  999.0,   -0.1,   -0.3,   -0.5,   -0.7,   -0.6,   -0.6,   -1.1,  999.0,   -0.8,   -0.4,  999.0,  999.0,   -0.2,  999.0,   -0.6,  999.0,  999.0,  999.0,  999.0,  999.0,  999.0
1999/09/16 04:00,   -0.8,   -0.3,    0.0,   -0.2,  999.0,  999.0,    0.2,    0.2,    0.3,  999.0,    0.1,    0.3,    0.2,    0.4,  999.0,  999.0,    0.0,    0.5,    0.1,  999.0,    0.1,  999.0,  999.0,   -0.3,    0.0,  999.0,   -0.8,   -0.8,   -0.7,   -0.4,   -0.9,   -0.3,    0.1,    0.0,  999.0,  999.0,    0.1,  999.0,  999.0,  999.0,  999.0,  999.0,  999.0,  999.0,  999.0,  999.0,  999.0
1999/09/16 04:10,   -0.2,   -0.0,    0.0,   -0.1,    0.2,   -0.0,    0.1,   -0.1,    0.1,   -0.1,   -0.0,   -0.1,  999.0,    0.0,  999.0,    0.0,    0.1,    0.1,    0.1,  999.0,    0.2,  999.0,  999.0,  999.0,  999.0,   -1.0,   -0.8,   -0.8,   -0.7,   -0.7,   -0.6,   -0.8,   -0.9,  999.0,  999.0,  999.0,  999.0,  999.0,  999.0,  999.0,  999.0,  999.0,  999.0,  999.0,  999.0,  999.0,  999.0
1999/09/16 04:20,  999.0,  999.0,    0.1,    0.1,    0.1,  999.0,  999.0,   -0.3,  999.0,   -0.6,  999.0,  999.0,  999.0,   -0.1,  999.0,  999.0,  999.0,   -0.0,  999.0,  999.0,  999.0,  999.0,  999.0,  999.0,  999.0,   -1.1,   -0.4,   -1.0,   -0.8,   -0.3,   -0.3,  999.0,   -0.2,    0.0,  999.0,  999.0,  999.0,  999.0,  999.0,   -0.1,  999.0,  999.0,  999.0,  999.0,  999.0,  999.0,  999.0
1999/09/16 04:30,    0.1,    0.2,    0.1,   -0.1,    0.1,  999.0,   -0.3,  999.0,    0.4,    0.1,    0.2,  999.0,  999.0,    0.2,    0.2,   -0.1,   -0.2,    0.1,  999.0,    0.1,  999.0,    0.1,  999.0,  999.0,  999.0,  999.0,   -0.8,   -0.9,   -0.6,   -0.2,   -0.2,   -0.4,   -1.2,   -0.5,   -0.0,   -0.7,   -0.4,  999.0,  999.0,  999.0,    0.1,  999.0,  999.0,  999.0,  999.0,  999.0,  999.0
1999/09/16 04:40,  999.0,    0.2,   -0.2,  999.0,    0.4,    0.2,  999.0,    0.0,   -0.0,   -0.0,   -0.1,   -0.0,    0.2,    0.1,    0.3,    0.4,    0.2,    0.1,  999.0,  999.0,   -0.2,  999.0,  999.0,    0.2,  999.0,   -0.5,   -0.7,   -1.0,   -1.0,   -1.0,   -0.9,   -1.0,   -0.8,   -0.8,   -0.9,   -0.8,   -0.8,  999.0,  999.0,  999.0,  999.0,  999.0,  999.0,   -0.5,  999.0,  999.0,  999.0
1999/09/16 04:50,   -0.1,  999.0,  999.0,  999.0,    0.3,    0.1,   -0.1,    0.1,    0.1,   -0.1,    0.2,    0.0,    0.1,  999.0,  999.0,   -0.0,    0.2,    0.1,  999.0,  999.0,  999.0,  999.0,  999.0,   -1.2,   -1.3,   -1.3,   -1.3,   -1.3,   -1.1,  999.0,   -0.9,   -0.8,   -0.7,   -0.8,  999.0,  999.0,  999.0,  999.0,  999.0,  999.0,  999.0,  999.0,   -0.5,   -0.7,   -0.7,   -0.7,   -0.6
1999/09/16 05:00,    0.1,   -0.0,  999.0,  999.0,   -0.1,   -0.2,   -0.1,   -0.2,  999.0,   -0.1,   -0.1,  999.0,  999.0,  999.0,  999.0,   -0.1,    0.2,    0.1,    0.1,  999.0,  999.0,  999.0,  999.0,   -0.9,   -1.1,   -1.0,  999.0,  999.0,  999.0,  999.0,   -0.9,   -0.9,   -0.8,   -1.0,   -0.9,   -1.1,  999.0,  999.0,  999.0,   -0.8,   -0.5,   -0.6,   -0.5,   -0.5,   -0.6,   -0.6,   -0.5
1999/09/16 05:10,  999.0,    0.1,  999.0,    0.1,  999.0,   -0.1,   -0.1,  999.0,  999.0,  999.0,  999.0,    0.1,  999.0,   -0.4,   -0.0,  999.0,  999.0,  999.0,   -0.1,   -0.0,  999.0,  999.0,  999.0,   -1.0,   -1.0,  999.0,  999.0,  999.0,   -1.0,   -1.0,   -0.8,   -0.9,  999.0,   -1.1,   -1.1,   -1.1,   -1.2,   -1.1,   -0.6,   -0.9,   -0.8,   -0.8,   -0.5,   -0.6,   -0.3,   -0.2,  999.0
1999/09/16 05:20,    0.3,   -0.0,   -0.1,   -0.2,   -0.2,   -0.1,    0.1,  999.0,    0.2,  999.0,    0.3,  999.0,  999.0,  999.0,  999.0,  999.0,  999.0,   -0.0,   -0.1,  999.0,  999.0,  999.0,   -0.3,   -0.4,   -0.8,   -0.9,   -0.8,  999.0,   -0.7,  999.0,  999.0,   -1.3,  999.0,   -1.2,   -1.1,   -1.0,   -1.1,   -1.2,   -1.2,   -1.1,   -1.0,   -0.8,   -0.8,   -0.8,   -0.6,  999.0,  999.0
1999/09/16 05:30,   -0.3,  999.0,   -0.3,   -0.0,   -0.2,   -0.0,   -0.0,    0.2,   -0.1,    0.2,    0.1,  999.0,  999.0,    0.1,  999.0,  999.0,    0.0,   -0.1,    0.0,   -0.3,  999.0,  999.0,    0.2,    0.2,    0.0,   -0.6,   -0.7,   -1.1,   -0.6,   -0.7,   -0.9,   -0.9,   -0.8,  999.0,   -0.6,   -0.9,   -1.0,   -1.0,   -0.9,   -0.8,   -0.7,   -0.7,   -0.5,   -0.6,  999.0,  999.0,  999.0
1999/09/16 05:40,  999.0,  999.0,    0.0,    0.1,    0.0,   -0.1,  999.0,    0.1,    0.1,  999.0,    0.3,  999.0,  999.0,  999.0,    0.2,  999.0,    0.1,  999.0,    0.2,    0.1,  999.0,  999.0,  999.0,   -0.1,    0.1,   -0.1,  999.0,   -0.3,   -0.5,   -0.5,   -0.1,   -0.6,   -0.8,   -0.7,  999.0,   -0.5,   -1.0,   -0.9,   -0.5,   -0.7,   -0.7,  999.0,  999.0,   -0.6,   -0.7,  999.0,  999.0
1999/09/16 05:50,   -0.1,   -0.1,    0.1,    0.2,    0.1,    0.0,   -0.1,  999.0,    0.1,  999.0,    0.1,   -0.1,  999.0,   -0.2,   -0.4,  999.0,  999.0,   -0.0,   -0.2,   -0.3,  999.0,  999.0,  999.0,  999.0,  999.0,  999.0,   -0.4,   -0.7,   -0.6,   -0.6,   -0.1,   -0.4,  999.0,   -0.5,   -0.6,  999.0,  999.0,  999.0,   -0.6,   -0.7,  999.0,  999.0,  999.0,   -0.8,  999.0,  999.0,  999.0
1999/09/16 06:00,   -0.1,   -0.1,    0.0,    0.0,   -0.0,    0.1,   -0.1,   -0.1,    0.1,    0.0,    0.1,    0.1,    0.1,    0.3,    0.3,   -0.1,   -0.1,   -0.2,    0.2,    0.5,  999.0,  999.0,  999.0,    0.0,   -0.5,   -0.8,   -0.6,   -0.9,   -0.9,   -0.5,   -0.2,  999.0,  999.0,    0.0,    0.0,  999.0,  999.0,  999.0,  999.0,  999.0,  999.0,  999.0,  999.0,  999.0,  999.0,  999.0,  999.0
1999/09/16 06:10,   -0.4,   -0.2,  999.0,  999.0,  999.0,    0.0,  999.0,   -0.0,  999.0,    0.1,   -0.1,    0.2,    0.3,  999.0,  999.0,  999.0,    0.1,  999.0,   -0.1,   -0.2,  999.0,  999.0,   -0.1,   -0.1,   -0.1,   -0.6,   -0.9,   -0.9,   -1.0,   -0.8,   -0.4,  999.0,   -0.4,  999.0,  999.0,  999.0,  999.0,  999.0,  999.0,  999.0,  999.0,  999.0,  999.0,  999.0,  999.0,  999.0,  999.0
1999/09/16 06:20,   -0.2,  999.0,    0.0,   -0.2,  999.0,   -0.0,    0.1,   -0.0,   -0.0,    0.1,    0.1,    0.0,   -0.0,    0.0,   -0.0,  999.0,    0.0,   -0.1,  999.0,   -0.0,    0.1,   -0.1,    0.1,   -0.2,    0.2,   -0.6,   -0.8,   -0.6,   -0.7,   -0.7,   -0.6,   -0.7,   -0.4,   -0.1,  999.0,  999.0,  999.0,  999.0,   -0.0,  999.0,  999.0,  999.0,  999.0,   -0.0,  999.0,  999.0,  999.0
1999/09/16 06:30,  999.0,   -0.2,  999.0,   -0.1,   -0.1,   -0.2,   -0.2,   -0.1,  999.0,   -0.2,   -0.1,   -0.2,   -0.3,  999.0,  999.0,   -0.0,    0.1,   -0.0,  999.0,   -0.1,   -0.4,   -0.9,  999.0,   -0.9,   -1.0,   -1.1,   -0.9,   -1.1,   -1.1,   -0.8,   -0.6,   -0.8,   -0.6,   -0.6,  999.0,  999.0,   -0.9,   -0.7,  999.0,  999.0,  999.0,   -0.8,   -0.9,   -0.8,   -1.0,   -0.9,  999.0
1999/09/16 06:40,   -0.2,    0.0,  999.0,    0.1,    0.1,    0.1,  999.0,    0.0,    0.2,    0.0,   -0.2,    0.1,  999.0,  999.0,    0.2,    0.2,    0.2,  999.0,  999.0,   -0.6,  999.0,  999.0,  999.0,  999.0,  999.0,   -1.0,  999.0,  999.0,  999.0,   -0.5,   -0.7,   -0.5,   -0.9,  999.0,   -0.9,   -0.8,   -0.9,   -0.9,  999.0,   -0.9,  999.0,   -0.9,   -0.7,   -0.7,   -0.6,   -0.7,  999.0
1999/09/16 06:50,   -0.5,   -0.1,   -3.0,   -2.8,   -1.7,   -3.1,   -2.8,   -1.5,   -2.1,   -2.3,   -2.0,   -1.9,   -1.9,   -2.4,   -2.5,   -2.5,   -2.4,   -2.4,   -1.1,   -0.8,   -1.2,   -1.5,   -1.6,   -1.5,   -1.2,   -1.3,   -0.9,   -1.4,   -1.1,   -1.7,   -1.3,   -1.2,   -1.0,   -0.9,   -0.8,   -0.7,   -0.9,  999.0,  999.0,  999.0,  999.0,  999.0,  999.0,  999.0,  999.0,  999.0,  999.0
1999/09/16 07:00,  999.0,  999.0,   -4.2,    0.1,  999.0,   -5.0,   -1.0,   -1.9,   -0.8,   -1.7,   -3.2,   -2.6,   -2.9,   -3.4,    0.2,   -3.2,   -2.9,  999.0,   -1.4,   -1.3,   -1.0,   -1.6,   -1.3,   -1.8,   -1.9,  999.0,   -2.1,  999.0,  999.0,   -1.0,   -0.6,   -0.4,   -0.5,   -0.5,  999.0,  999.0,  999.0,  999.0,  999.0,  999.0,  999.0,  999.0,  999.0,  999.0,  999.0,  999.0,  999.0
1999/09/16 07:10,   -3.6,    0.3,   -4.3,   -4.5,   -4.3,   -3.8,   -4.7,   -3.0,   -5.2,   -5.3,   -4.6,   -4.7,   -4.5,   -4.5,   -5.0,   -4.6,   -2.1,   -1.6,   -1.5,   -1.6,   -1.6,   -2.2,   -1.5,   -1.5,   -1.8,   -1.5,   -1.5,   -1.2,   -1.0,   -0.8,   -0.5,   -0.5,   -0.5,  999.0,   -0.7,  999.0,  999.0,  999.0,  999.0,  999.0,  999.0,  999.0,  999.0,  999.0,  999.0,  999.0,  999.0
1999/09/16 07:20,   -5.5,   -5.7,   -6.1,   -4.7,   -5.1,   -5.0,   -5.0,   -4.5,   -3.7,   -4.0,   -4.4,   -4.8,   -4.9,   -5.0,   -4.7,  999.0,  999.0,   -1.8,  999.0,   -1.5,   -1.2,  999.0,   -1.7,  999.0,   -1.0,   -1.1,   -1.4,   -1.2,   -1.0,   -0.9,   -0.8,   -0.7,   -0.8,   -0.8,   -0.6,   -0.4,   -0.2,  999.0,  999.0,  999.0,  999.0,  999.0,  999.0,  999.0,  999.0,  999.0,  999.0
1999/09/16 07:30,   -4.4,   -4.8,   -5.4,   -7.1,   -6.3,   -4.9,   -5.7,   -5.9,   -4.5,   -4.7,   -5.6,   -5.5,   -5.7,   -5.5,   -4.6,   -4.9,   -3.8,   -1.7,   -1.5,   -1.2,   -1.1,   -0.9,   -1.2,  999.0,   -1.3,   -1.4,  999.0,   -0.8,   -1.1,   -1.0,   -0.8,   -0.6,  999.0,   -0.2,   -0.2,   -0.4,  999.0,  999.0,  999.0,  999.0,  999.0,  999.0,  999.0,  999.0,  999.0,  999.0,  999.0
1999/09/16 07:40,   -3.6,   -4.1,   -4.3,   -3.7,   -3.5,   -3.6,   -3.6,   -3.7,   -3.7,   -3.8,   -3.9,   -4.1,   -3.9,   -3.9,   -4.2,   -4.4,   -4.4,   -1.8,   -1.3,   -1.4,   -1.4,   -1.2,   -1.2,   -1.0,   -1.3,   -1.4,   -1.5,   -1.5,   -1.5,   -1.3,   -1.0,   -0.7,   -0.8,   -0.7,   -0.4,   -0.0,  999.0,  999.0,  999.0,  999.0,  999.0,  999.0,  999.0,  999.0,  999.0,  999.0,  999.0
1999/09/16 07:50,   -2.8,  999.0,  999.0,   -3.4,   -3.6,   -3.6,   -3.8,   -3.6,   -3.7,   -3.8,   -3.9,   -3.8,   -4.0,   -4.1,   -4.3,   -4.2,   -3.8,   -1.7,   -1.4,   -1.3,   -1.1,   -1.2,   -1.0,   -1.1,   -1.0,   -0.9,   -1.0,   -1.0,   -1.0,   -0.8,   -0.7,   -0.8,   -0.8,   -1.0,   -0.8,   -0.3,   -0.7,  999.0,   -0.4,  999.0,  999.0,  999.0,  999.0,  999.0,  999.0,  999.0,  999.0
1999/09/16 08:00,   -3.6,  999.0,   -3.8,   -4.5,   -4.2,   -3.6,   -3.8,   -3.7,   -4.6,   -3.8,   -4.0,   -4.0,   -4.7,   -4.4,   -4.2,   -3.9,   -3.5,   -2.2,   -1.6,   -1.2,   -1.0,   -1.1,   -0.8,   -0.9,   -0.8,   -0.9,   -0.9,   -0.8,   -1.1,   -1.3,   -1.0,   -0.9,   -1.0,   -1.0,   -1.0,   -0.8,   -0.7,   -0.8,   -0.5,   -0.7,  999.0,   -0.5,   -0.3,  999.0,  999.0,  999.0,  999.0
1999/09/16 08:10,   -4.0,  999.0,  999.0,   -4.4,   -3.7,   -3.3,   -4.1,   -3.8,   -3.1,   -2.9,   -3.6,   -3.2,   -2.9,   -3.2,   -3.3,   -3.4,   -3.1,   -1.6,   -1.2,   -1.0,   -1.2,   -1.1,   -1.0,   -0.9,   -0.9,   -1.0,   -0.9,   -0.9,   -0.9,   -1.0,   -1.0,   -1.0,   -1.0,   -0.9,   -0.9,   -0.9,   -0.8,   -0.7,   -0.6,   -0.5,   -0.6,   -0.4,   -0.5,   -0.6,   -0.8,  999.0,  999.0
1999/09/16 08:20,  999.0,  999.0,   -2.4,   -2.2,   -2.1,   -2.1,  999.0,  999.0,   -2.8,   -2.3,   -2.8,   -2.9,   -3.1,   -2.9,   -3.5,   -3.9,   -3.6,   -1.0,   -0.9,   -0.7,   -0.4,   -0.6,   -0.9,   -0.9,   -0.9,   -0.8,   -0.7,   -0.7,   -0.8,   -0.8,   -0.9,   -1.0,   -1.0,   -1.0,   -1.1,   -0.9,   -0.9,   -0.9,   -0.9,   -0.8,  999.0,   -0.7,  999.0,   -0.6,  999.0,  999.0,  999.0
1999/09/16 08:30,  999.0,   -0.0,    0.1,    0.0,    0.1,  999.0,  999.0,  999.0,  999.0,   -0.1,   -0.0,   -0.0,    0.1,   -0.0,    0.0,   -0.0,   -0.0,   -0.1,   -0.3,    0.1,    0.1,   -0.0,   -0.2,   -0.4,   -0.5,   -0.8,   -0.8,   -0.9,   -1.0,   -1.3,   -1.2,   -1.2,   -1.1,   -1.0,   -1.0,   -1.1,   -0.9,   -0.8,   -0.7,   -0.8,   -0.8,   -0.8,   -0.6,   -0.4,  999.0,   -0.1,  999.0
1999/09/16 08:40,    0.3,    0.1,    0.2,  999.0,  999.0,  999.0,   -0.1,  999.0,    0.0,   -0.0,   -0.0,   -0.0,    0.2,    0.1,  999.0,   -0.1,    0.2,   -0.0,   -0.1,    0.2,   -0.1,   -0.4,   -0.1,   -0.1,   -0.7,   -0.8,   -1.0,   -1.1,   -1.2,   -1.1,   -1.0,   -1.1,   -1.1,   -1.0,   -1.2,   -1.1,   -1.2,   -0.8,   -0.4,   -0.8,  999.0,  999.0,  999.0,  999.0,  999.0,   -0.0,    0.3
1999/09/16 08:50,  999.0,  999.0,    0.0,   -0.1,   -0.1,  999.0,    0.0,   -0.1,   -0.2,    0.1,   -0.2,   -0.0,    0.1,   -0.5,   -0.2,  999.0,    0.1,    0.1,    0.0,    0.0,    0.0,   -0.0,   -0.1,   -0.3,   -0.4,   -0.7,   -0.6,   -1.0,   -1.1,   -1.1,   -1.0,   -1.0,   -1.0,   -1.2,   -1.1,   -1.3,   -1.4,   -1.3,   -1.3,  999.0,   -1.0,  999.0,  999.0,  999.0,  999.0,  999.0,  999.0
1999/09/16 09:00,  999.0,  999.0,  999.0,   -0.1,  999.0,   -0.1,  999.0,  999.0,  999.0,   -0.1,    0.0,  999.0,   -0.0,  999.0,    0.1,    0.1,    0.2,    0.1,   -0.0,   -0.0,   -0.0,    0.1,    0.1,    0.1,   -0.0,  999.0,    0.1,  999.0,   -0.7,   -0.8,   -1.0,   -1.0,   -1.1,   -1.3,   -1.1,   -1.0,   -1.1,   -1.2,  999.0,  999.0,  999.0,   -0.1,  999.0,  999.0,  999.0,  999.0,  999.0
1999/09/16 09:10,  999.0,    0.1,  999.0,  999.0,  999.0,    0.1,   -0.2,  999.0,  999.0,  999.0,  999.0,   -0.1,   -0.1,   -0.1,    0.1,    0.1,   -0.3,   -0.0,   -0.0,    0.0,   -0.1,   -0.1,   -0.1,   -1.0,   -1.0,   -1.0,  999.0,   -1.0,   -0.9,   -0.8,   -0.8,   -0.9,   -0.9,   -1.0,   -1.0,   -1.0,   -0.9,   -1.0,   -1.1,  999.0,  999.0,  999.0,  999.0,  999.0,   -0.1,  999.0,  999.0
1999/09/16 09:20,   -0.2,   -0.0,   -0.2,   -0.1,   -0.1,    0.1,   -0.1,   -0.3,   -0.2,   -0.1,   -1.4,   -2.3,   -1.9,   -1.4,   -3.6,   -1.0,   -2.0,   -1.5,   -1.1,   -0.6,   -0.3,   -0.2,   -0.1,    0.1,   -0.5,   -0.7,   -0.9,   -0.8,   -0.8,   -0.4,   -0.9,   -1.3,   -0.8,   -1.0,   -1.0,   -1.0,   -1.0,   -0.9,   -0.7,   -0.7,   -0.6,   -0.6,   -0.5,  999.0,   -0.4,  999.0,   -0.5
1999/09/16 09:30,  999.0,  999.0,    0.1,    0.1,    0.1,    0.1,  999.0,  999.0,   -0.1,   -0.2,  999.0,   -1.4,   -1.8,   -1.6,   -0.6,   -1.0,   -0.6,   -0.4,   -0.2,   -0.3,   -0.6,   -0.3,   -0.2,   -0.4,    0.0,   -0.1,   -0.1,   -0.0,   -0.3,   -0.0,   -0.1,   -0.2,   -0.5,   -0.6,   -1.0,   -1.0,  999.0,   -0.8,   -0.8,   -0.8,   -0.8,   -0.8,   -0.4,   -0.5,  999.0,   -0.3,  999.0
1999/09/16 09:40,    0.2,    0.1,  999.0,    0.1,    0.1,    0.4,    0.4,    0.4,    0.0,   -0.1,   -0.1,    0.1,   -0.0,   -1.0,   -0.9,   -1.0,   -0.7,   -0.6,   -0.3,    0.1,   -0.1,    0.1,  999.0,   -0.1,    0.1,   -0.2,    0.1,  999.0,   -0.3,  999.0,    0.0,    0.1,    0.2,   -0.6,   -0.8,   -0.8,   -0.8,   -0.7,   -0.6,   -0.5,   -0.5,   -0.4,   -0.4,   -0.4,  999.0,   -0.4,  999.0
1999/09/16 09:50,    0.1,   -0.2,   -0.1,    0.1,   -0.0,   -0.2,   -0.9,   -0.2,   -0.9,   -0.2,   -0.5,   -0.7,   -0.3,   -0.9,   -0.8,   -0.7,   -0.6,   -0.6,   -1.2,   -0.8,   -0.6,   -0.3,   -0.4,   -0.1,   -0.3,   -0.1,   -0.1,   -0.0,   -0.0,   -0.3,   -0.3,   -0.5,   -0.3,   -0.5,   -1.2,   -1.2,   -1.0,   -1.0,   -0.7,   -0.7,   -0.8,   -0.7,   -0.5,   -0.5,   -0.5,   -0.5,   -0.3
1999/09/16 10:00,   -2.2,   -1.6,  999.0,   -0.1,  999.0,   -1.3,   -2.1,   -2.8,   -2.6,   -2.2,   -2.0,   -2.0,   -2.0,   -2.0,   -1.4,   -0.9,   -1.1,   -0.8,   -0.6,   -0.5,   -0.0,   -0.2,   -0.1,    0.0,    0.2,    0.2,   -0.0,    0.2,    0.0,   -0.3,   -0.7,   -0.9,   -0.5,   -0.8,   -1.1,   -1.2,   -1.0,   -0.8,   -0.7,   -0.7,  999.0,   -0.4,   -0.4,  999.0,  999.0,  999.0,  999.0
1999/09/16 10:10,   -1.6,    0.3,   -2.5,   -1.5,  999.0,   -3.0,   -2.9,   -2.6,   -1.9,   -2.2,   -2.7,   -2.4,   -2.5,   -2.7,   -3.0,   -2.2,   -3.1,   -1.4,   -2.1,   -1.2,   -1.1,   -0.8,    0.2,   -0.9,   -0.4,  999.0,   -1.6,   -1.3,   -0.9,   -1.0,   -0.9,   -1.0,   -1.1,  999.0,   -1.1,   -1.1,  999.0,  999.0,  999.0,  999.0,  999.0,  999.0,  999.0,  999.0,  999.0,  999.0,  999.0
1999/09/16 10:20,  999.0,  999.0,  999.0,  999.0,   -2.3,  999.0,  999.0,  999.0,   -2.5,  999.0,   -2.1,  999.0,   -2.9,  999.0,   -4.3,   -2.2,   -1.8,   -2.4,   -1.3,   -1.1,   -1.1,   -1.1,  999.0,  999.0,   -1.5,   -1.5,   -1.6,   -2.0,   -1.5,   -1.2,   -1.3,   -1.2,   -1.0,   -1.1,   -0.9,   -1.1,   -1.0,   -1.0,   -1.0,   -1.1,   -0.7,   -1.0,  999.0,   -0.8,   -1.0,  999.0,   -0.4
1999/09/16 10:30,   -4.6,   -4.3,  999.0,   -4.2,   -4.5,   -5.3,   -4.4,   -4.4,   -4.8,   -4.2,   -4.4,   -3.7,   -3.7,   -3.5,   -3.1,   -2.8,   -3.3,   -2.9,   -1.6,   -0.8,   -0.9,   -1.0,   -0.9,   -1.5,   -1.7,   -1.6,   -1.6,   -1.4,   -1.6,   -1.2,   -1.3,   -1.1,   -0.9,   -0.9,   -1.0,   -0.9,   -0.9,   -0.9,   -0.8,   -0.7,  999.0,   -0.5,   -0.6,  999.0,   -0.6,   -0.5,   -0.6
1999/09/16 10:40,   -4.8,   -4.3,   -3.8,   -4.3,   -3.9,   -4.0,   -3.6,   -3.9,   -3.5,   -3.6,   -3.8,   -4.1,   -3.2,   -3.8,   -4.1,   -3.9,   -4.0,   -3.9,   -1.8,   -1.2,   -1.1,   -1.3,   -1.4,   -1.3,   -1.2,   -1.6,   -1.3,   -0.4,  999.0,   -1.0,   -0.7,   -0.5,   -0.1,   -0.7,   -0.6,   -0.8,   -0.9,   -0.9,   -0.5,   -0.8,   -0.8,   -0.6,  999.0,  999.0,  999.0,   -0.6,   -0.7
1999/09/16 10:50,   -4.2,   -3.6,   -3.9,   -3.6,   -4.3,   -2.5,   -3.6,   -4.2,   -3.9,   -3.5,   -3.3,   -4.4,   -4.7,   -4.6,   -4.4,   -4.3,   -4.0,   -2.3,   -1.8,   -1.8,   -1.8,   -2.3,   -1.7,   -1.6,   -1.1,   -1.3,   -1.8,   -1.8,   -1.4,   -1.3,   -0.9,  999.0,   -0.7,   -1.2,    0.0,   -0.6,   -1.1,   -0.6,   -0.4,   -0.3,   -0.6,  999.0,  999.0,  999.0,  999.0,   -0.6,  999.0
1999/09/16 11:00,  999.0,   -5.4,   -5.2,   -5.0,   -5.7,   -5.4,   -5.7,   -5.7,   -5.8,   -5.2,   -5.1,   -5.3,   -5.3,   -5.1,   -5.1,   -5.1,   -4.2,   -2.1,   -1.7,   -1.9,   -1.8,   -1.8,   -1.7,   -1.3,  999.0,   -1.2,   -1.2,   -1.2,   -1.0,   -1.0,   -0.9,   -0.9,   -0.8,   -0.7,   -0.5,   -0.6,   -0.7,   -0.6,   -0.6,   -0.7,   -0.7,   -0.6,   -0.3,   -0.5,   -0.4,   -0.5,  999.0
1999/09/16 11:10,   -4.6,   -4.8,   -4.6,   -4.1,   -4.2,   -4.3,   -3.7,   -4.3,   -4.2,   -4.8,   -5.7,   -5.4,   -3.9,   -4.3,   -4.5,   -5.0,   -4.4,   -2.1,   -1.7,   -1.4,   -1.7,   -2.1,   -1.9,   -1.7,   -1.3,   -1.2,   -1.3,   -1.2,   -1.1,   -1.0,   -1.3,   -1.1,   -0.7,   -0.7,   -1.0,   -0.6,   -0.9,   -0.9,   -0.8,   -0.8,   -1.0,   -0.9,   -0.7,   -0.5,   -0.7,   -0.7,   -0.7
1999/09/16 11:20,   -5.2,   -4.7,   -5.2,   -4.9,   -4.9,   -4.5,   -4.9,   -5.2,   -4.7,   -4.3,   -4.5,   -4.3,   -4.2,   -4.7,   -4.5,   -4.6,   -4.1,   -2.8,   -1.8,   -2.2,   -2.4,   -2.5,   -2.2,   -1.8,   -1.5,   -1.3,   -1.3,   -1.2,   -1.2,   -2.1,   -0.9,   -0.8,   -0.9,   -0.9,   -1.1,   -1.0,   -0.8,   -0.7,   -0.7,   -0.6,  999.0,   -0.6,   -0.7,   -0.5,   -2.1,   -1.9,   -0.2
1999/09/16 11:30,   -1.7,  999.0,  999.0,  999.0,  999.0,  999.0,   -0.2,   -0.3,  999.0,   -0.1,    0.1,  999.0,   -0.0,  999.0,    0.1,  999.0,    0.1,   -0.2,    0.0,   -0.3,    0.0,   -0.1,   -0.2,  999.0,  999.0,  999.0,   -1.7,   -1.6,   -1.3,   -1.0,   -0.7,   -1.1,   -0.6,   -1.0,   -0.9,   -1.0,   -1.1,   -1.1,   -1.0,  999.0,   -1.1,   -1.0,   -0.8,   -0.6,   -0.7,   -0.7,   -0.8
1999/09/16 11:40,   -0.1,  999.0,  999.0,    0.1,    0.1,    0.0,    0.1,    0.1,    0.1,    0.1,    0.1,  999.0,    0.2,    0.2,  999.0,  999.0,   -0.4,   -0.3,   -0.5,   -0.4,   -0.2,  999.0,   -0.3,  999.0,   -0.1,  999.0,   -1.2,   -1.5,   -1.6,   -1.5,   -1.2,   -1.2,   -0.9,  999.0,   -1.0,   -1.0,   -1.0,   -1.0,   -1.0,   -0.8,   -0.9,  999.0,   -0.9,   -0.9,   -0.6,   -0.9,   -0.8
1999/09/16 11:50,  999.0,  999.0,   -0.0,   -0.1,    0.0,    0.0,  999.0,  999.0,  999.0,   -0.3,   -0.2,   -0.4,   -0.1,   -0.7,   -0.1,   -0.5,   -0.2,   -0.1,   -0.4,   -0.3,   -0.3,   -0.1,   -0.2,    0.0,   -0.6,   -1.3,   -1.1,   -1.1,   -1.2,   -1.0,   -0.9,   -1.1,   -0.9,   -0.8,   -0.8,   -0.9,   -0.9,   -0.9,   -0.9,   -0.8,   -0.7,   -0.9,   -0.8,   -0.8,   -0.6,   -0.6,   -0.5
1999/09/16 12:00,  999.0,  999.0,  999.0,    0.2,  999.0,    0.2,  999.0,  999.0,  999.0,    0.0,  999.0,    0.1,    0.0,  999.0,    0.0,   -0.0,   -0.8,   -0.3,   -0.1,    0.1,   -0.1,   -0.1,   -0.2,    0.0,  999.0,   -1.2,   -0.8,   -1.0,   -1.0,   -0.9,   -0.9,   -0.7,   -0.6,   -0.7,   -0.7,  999.0,   -0.4,   -0.6,   -0.4,   -0.6,   -0.4,  999.0,  999.0,  999.0,  999.0,  999.0,  999.0
1999/09/16 12:10,  999.0,   -0.1,   -0.3,   -0.2,    0.0,   -0.1,    0.0,    0.0,   -0.1,    0.0,   -0.1,    0.0,   -0.2,   -0.1,   -0.2,   -0.3,   -0.2,   -0.2,   -0.4,   -0.2,    0.0,   -0.1,   -0.1,    0.0,   -0.0,  999.0,  999.0,  999.0,  999.0,    0.2,   -1.1,   -0.9,   -0.3,   -0.6,   -0.7,   -0.5,   -0.4,  999.0,  999.0,  999.0,  999.0,  999.0,  999.0,  999.0,  999.0,  999.0,  999.0
1999/09/16 12:20,    0.2,    0.0,    0.1,   -0.1,    0.1,    0.1,    0.0,    0.1,  999.0,    0.0,    0.1,  999.0,   -0.1,   -0.3,   -0.6,   -0.3,   -0.1,   -0.2,   -0.2,    0.0,    0.2,    0.0,   -0.0,  999.0,  999.0,   -0.3,  999.0,  999.0,  999.0,  999.0,  999.0,  999.0,  999.0,  999.0,  999.0,  999.0,   -0.4,  999.0,  999.0,  999.0,  999.0,  999.0,  999.0,  999.0,  999.0,  999.0,  999.0
1999/09/16 12:30,   -0.1,   -0.2,   -0.1,   -0.0,   -0.2,  999.0,   -0.1,   -0.1,   -0.1,   -0.1,  999.0,   -0.1,  999.0,  999.0,   -0.0,   -0.1,   -0.3,   -0.2,   -0.2,    0.1,  999.0,   -0.1,  999.0,   -0.1,   -0.4,  999.0,  999.0,  999.0,  999.0,   -0.1,   -0.2,   -0.2,   -0.3,  999.0,  999.0,   -0.4,   -0.1,   -0.4,  999.0,  999.0,  999.0,  999.0,   -0.5,   -0.5,   -0.2,  999.0,  999.0
1999/09/16 12:40,    0.2,    0.1,   -0.3,   -0.1,   -0.2,   -0.3,   -0.2,    0.1,   -0.2,  999.0,    0.2,   -0.2,   -0.0,   -0.3,  999.0,   -0.1,  999.0,   -0.3,    0.1,   -0.0,    0.0,    0.1,    0.1,   -0.0,   -0.1,   -0.1,    0.0,   -0.2,    0.0,    0.1,    0.1,   -0.4,   -0.0,   -0.1,    0.0,    0.1,   -0.1,   -0.5,   -0.6,   -0.6,   -0.5,  999.0,  999.0,  999.0,  999.0,  999.0,  999.0
1999/09/16 12:50,  999.0,  999.0,   -0.0,   -0.2,   -0.3,    0.1,    0.1,    0.1,  999.0,    0.1,  999.0,   -0.0,    0.1,    0.2,   -0.1,    0.1,   -0.0,  999.0,   -0.2,   -0.2,  999.0,  999.0,  999.0,   -0.0,  999.0,   -0.0,   -0.1,   -0.1,   -0.0,   -0.0,    0.0,   -0.3,   -0.0,   -0.1,   -0.1,   -0.1,  999.0,    0.0,   -0.5,   -0.8,   -0.8,   -0.7,   -0.7,  999.0,   -0.6,  999.0,  999.0
1999/09/16 13:00,    0.2,    0.1,   -0.4,   -0.4,   -0.4,  999.0,   -0.2,    0.1,    0.1,    0.0,    0.0,    0.1,    0.1,    0.0,    0.1,    0.1,    0.1,    0.1,    0.0,    0.0,   -0.0,    0.0,    0.1,    0.1,  999.0,    0.0,    0.2,    0.1,    0.0,   -0.1,    0.1,   -0.2,    0.1,   -0.5,    0.0,   -0.1,   -0.1,    0.1,   -0.6,  999.0,  999.0,  999.0,   -0.8,   -0.8,   -0.5,  999.0,   -0.7
1999/09/16 13:10,  999.0,  999.0,   -0.2,    0.1,    0.2,    0.3,    0.2,    0.2,    0.2,    0.2,    0.1,  999.0,    0.1,   -0.0,    0.2,    0.2,    0.3,    0.1,    0.1,    0.2,    0.2,    0.0,   -0.1,    0.1,    0.3,  999.0,   -0.1,  999.0,  999.0,    0.0,    0.1,  999.0,  999.0,  999.0,   -0.0,  999.0,  999.0,  999.0,   -0.3,   -0.9,   -0.8,   -0.7,   -0.6,   -0.6,   -0.4,   -0.4,   -0.5
1999/09/16 13:20,  999.0,   -0.1,   -0.2,  999.0,   -0.2,    0.1,  999.0,    0.1,    0.1,    0.2,    0.1,   -0.2,   -0.7,   -0.5,   -0.0,    0.2,    0.2,   -0.1,   -0.1,    0.1,    0.1,   -0.2,   -0.1,    0.1,   -0.1,    0.1,    0.1,    0.0,  999.0,  999.0,    0.0,    0.1,  999.0,  999.0,   -0.2,  999.0,  999.0,  999.0,   -0.3,   -0.5,   -0.8,   -0.7,   -0.8,   -0.8,  999.0,  999.0,   -0.4
1999/09/16 13:30,   -0.1,   -0.6,    0.0,  999.0,  999.0,    0.3,   -0.1,    0.0,   -0.3,   -0.2,   -0.4,   -0.3,   -0.3,   -0.3,   -0.1,   -0.1,    0.0,    0.1,   -0.1,   -0.0,   -0.2,    0.1,   -0.2,   -0.2,   -0.1,   -0.4,   -0.3,   -0.1,   -0.1,   -0.0,   -0.3,  999.0,  999.0,   -0.3,  999.0,  999.0,  999.0,  999.0,   -0.2,  999.0,  999.0,   -1.1,   -0.9,   -0.7,   -0.6,   -0.6,   -0.4
1999/09/16 13:40,   -0.1,   -0.2,   -0.3,  999.0,   -0.1,  999.0,  999.0,  999.0,   -0.1,   -0.3,   -0.5,   -0.3,   -0.5,   -0.3,  999.0,    0.0,   -0.2,   -0.1,   -0.3,   -0.2,   -0.1,   -0.0,   -0.1,   -0.2,   -0.2,   -0.2,  999.0,   -0.0,    0.2,    0.2,    0.2,  999.0,  999.0,    0.0,  999.0,  999.0,   -0.0,   -0.1,  999.0,   -1.2,   -1.0,   -0.8,   -0.9,  999.0,  999.0,   -0.0,    0.0
1999/09/16 13:50,   -3.2,   -3.1,   -1.1,   -3.2,   -3.4,   -2.1,   -0.1,   -3.7,   -2.2,   -2.1,   -3.3,   -2.1,   -3.1,   -2.2,   -1.9,   -1.8,   -2.2,   -2.6,   -1.6,   -0.7,   -0.6,   -0.4,   -0.4,   -0.2,   -0.0,   -0.2,   -0.1,   -0.1,  999.0,    0.2,   -0.2,  999.0,  999.0,    0.2,  999.0,   -0.1,  999.0,  999.0,    0.0,  999.0,   -0.6,   -0.6,   -0.6,   -0.3,   -0.2,  999.0,  999.0
1999/09/16 14:00,   -4.6,  999.0,   -4.2,   -3.9,   -3.7,  999.0,   -3.0,   -3.5,   -3.8,   -3.6,   -3.8,   -3.6,   -3.1,   -3.0,   -2.9,   -2.1,   -2.2,   -1.1,   -1.5,   -1.4,   -0.8,   -1.0,   -0.3,   -0.3,   -0.0,    0.2,   -0.0,    0.2,  999.0,    0.3,    0.3,  999.0,  999.0,  999.0,  999.0,   -0.0,   -0.0,  999.0,   -0.2,  999.0,  999.0,   -0.6,   -0.9,   -0.9,   -0.9,  999.0,  999.0
1999/09/16 14:10,   -4.6,   -5.1,   -4.3,   -4.7,   -4.8,   -4.5,   -4.7,   -4.8,   -4.9,   -4.3,   -3.8,   -3.7,   -4.0,   -3.8,   -3.7,   -3.4,   -3.3,   -2.9,   -2.6,   -2.2,   -1.4,   -1.1,   -0.0,   -0.2,    0.1,   -0.1,   -0.1,    0.3,    0.2,   -0.3,   -0.0,  999.0,  999.0,  999.0,  999.0,  999.0,  999.0,  999.0,   -0.5,   -0.9,   -1.2,   -1.0,   -0.8,   -0.6,   -0.6,   -0.3,  999.0
1999/09/16 14:20,   -3.3,   -3.8,   -3.1,   -3.4,   -5.5,   -3.3,   -3.8,   -3.1,   -2.9,   -4.0,   -4.1,   -3.8,   -3.5,   -2.7,   -3.3,   -2.8,   -2.1,   -2.4,   -2.1,   -1.3,   -1.2,   -0.9,   -0.5,   -0.1,   -0.3,   -0.0,   -0.3,    0.2,   -0.0,    0.2,  999.0,  999.0,  999.0,  999.0,  999.0,  999.0,    0.0,   -0.2,   -0.3,   -0.9,   -0.8,   -0.9,   -0.7,   -0.8,   -0.5,   -0.2,   -0.1
1999/09/16 14:30,   -5.1,   -5.6,   -4.8,   -4.5,   -4.3,   -3.8,   -3.2,   -2.8,   -2.1,   -2.2,   -2.3,   -2.2,   -1.4,   -0.9,   -1.5,   -1.3,   -1.4,   -1.3,   -0.8,   -1.3,   -1.2,   -0.6,   -0.3,   -0.1,    0.0,    0.0,    0.0,    0.1,    0.0,   -0.2,   -0.2,   -0.0,  999.0,  999.0,  999.0,    0.6,    0.6,   -0.1,   -0.7,   -1.1,   -1.0,   -0.9,   -0.9,   -0.8,  999.0,  999.0,  999.0
1999/09/16 14:40,   -3.2,   -3.1,   -2.1,   -2.7,   -2.2,   -2.4,   -2.6,   -2.6,   -2.6,   -2.3,   -2.1,   -1.7,   -1.1,   -1.1,   -0.6,   -0.6,   -0.8,   -0.4,   -0.6,   -0.2,   -0.1,    0.0,   -0.3,    0.1,    0.2,    0.0,   -0.1,   -0.4,   -0.3,   -0.1,   -0.4,   -0.5,  999.0,  999.0,   -0.1,   -0.3,   -0.4,   -0.6,   -0.6,   -0.6,   -0.8,   -0.7,   -1.0,  999.0,  999.0,  999.0,  999.0
1999/09/16 14:50,  999.0,   -2.1,   -2.2,   -2.3,   -1.9,   -1.3,   -3.1,   -4.5,   -7.6,   -3.0,   -1.3,   -1.5,   -2.4,   -0.7,   -0.9,   -7.2,   -1.1,   -5.1,   -0.0,   -0.8,   -0.7,   -0.8,   -1.2,   -1.5,   -1.2,  999.0,    0.1,    0.0,   -0.3,   -0.2,   -0.4,  999.0,  999.0,  999.0,  999.0,    0.0,   -0.4,   -0.2,  999.0,  999.0,  999.0,  999.0,  999.0,  999.0,  999.0,  999.0,  999.0
1999/09/16 15:00,   -5.0,   -4.7,   -5.4,   -6.2,   -5.3,   -5.6,   -5.7,   -6.0,   -5.3,   -5.6,   -5.7,   -5.9,   -5.8,   -5.8,   -5.7,   -5.8,   -5.1,   -3.8,   -2.7,   -2.1,   -1.6,   -1.4,   -1.2,   -0.9,   -0.7,   -0.6,   -0.5,   -0.4,   -0.2,   -0.1,   -0.1,    0.2,    0.1,    0.2,    0.1,    0.0,   -0.1,  999.0,   -0.2,    0.2,  999.0,  999.0,   -0.3,   -0.3,   -0.3,  999.0,    0.0
1999/09/16 15:10,   -6.3,   -6.2,   -6.4,   -5.2,   -5.5,   -6.6,   -4.9,   -5.5,   -4.3,   -5.7,   -5.7,   -5.9,   -6.0,   -5.5,   -5.6,   -6.2,   -4.9,   -3.0,   -2.0,   -1.9,   -0.9,   -1.2,   -0.4,   -0.4,   -0.8,   -0.4,   -0.0,    0.2,   -0.3,   -0.2,   -0.5,    0.1,   -0.0,   -0.1,   -0.2,   -0.6,   -0.0,  999.0,    0.5,    0.1,  999.0,   -0.1,  999.0,  999.0,   -0.6,  999.0,   -0.6
1999/09/16 15:20,   -5.2,   -3.4,   -4.4,   -4.9,   -5.3,   -3.3,   -4.3,   -3.9,   -3.7,   -3.2,   -3.9,   -6.1,    0.1,   -2.0,   -2.0,   -1.4,   -0.8,   -0.5,   -0.8,   -1.7,   -0.6,   -0.6,   -0.6,   -1.3,   -1.4,  999.0,   -1.2,   -0.9,   -0.9,   -0.4,   -0.4,   -0.3,    0.0,   -0.0,   -0.6,   -0.4,   -0.5,   -0.2,   -0.7,   -1.0,   -1.0,   -0.9,   -0.9,   -0.9,   -0.9,   -0.5,   -0.3
1999/09/16 15:30,   -2.8,   -2.5,   -1.4,   -0.3,  999.0,   -1.7,   -2.0,   -2.0,   -1.6,   -1.6,   -2.3,   -0.5,   -1.0,   -0.8,   -0.6,   -0.4,   -0.3,   -0.1,    0.3,   -0.2,   -0.0,   -0.1,    0.2,    0.2,    0.3,    0.3,  999.0,    0.1,   -0.2,   -0.5,   -0.1,   -0.4,   -0.1,    0.0,    0.0,    0.2,   -0.2,    0.1,  999.0,   -0.1,   -0.7,   -0.7,   -0.9,   -0.7,   -0.5,   -0.4,  999.0
1999/09/16 15:40,   -2.7,   -2.1,   -1.6,   -0.9,  999.0,   -2.0,   -1.2,   -1.3,   -1.2,   -1.9,   -1.6,   -0.2,   -0.4,   -0.4,   -0.7,   -0.4,   -0.6,   -0.4,   -0.5,    0.0,   -0.4,    0.2,    0.2,    0.1,    0.3,    0.1,   -0.1,   -0.1,   -0.2,  999.0,   -0.3,   -0.2,   -0.3,   -0.2,   -0.1,    0.0,    0.1,  999.0,   -0.5,    0.0,   -0.8,  999.0,   -0.7,   -0.5,  999.0,  999.0,  999.0
1999/09/16 15:50,   -2.2,   -1.7,   -1.1,   -3.4,   -1.2,   -1.3,   -2.0,   -1.6,    0.2,    0.2,   -0.6,    0.1,   -0.1,   -0.3,   -0.0,   -0.0,   -0.0,    0.0,    0.0,   -0.2,    0.2,  999.0,   -0.3,   -0.1,  999.0,    0.2,  999.0,   -0.0,    0.1,  999.0,  999.0,  999.0,    0.2,    0.4,    0.6,    0.3,    0.0,   -0.9,   -1.0,   -1.0,   -0.9,   -0.9,   -1.1,   -0.9,  999.0,   -1.0,  999.0
1999/09/16 16:00,   -1.4,   -0.6,   -0.7,   -0.2,   -0.6,   -0.6,   -0.7,   -0.6,   -0.2,   -0.8,    0.2,    0.1,    0.0,    0.2,   -0.1,   -0.3,    0.1,   -0.2,   -0.0,   -0.1,   -0.1,    0.1,   -0.1,    0.2,    0.2,    0.1,  999.0,    0.2,   -0.2,   -0.1,   -0.0,   -0.0,   -0.2,   -0.2,   -0.2,   -0.1,    0.3,   -0.2,   -1.0,   -1.0,   -1.1,   -0.9,   -1.3,   -0.8,   -0.6,   -0.8,   -0.7
1999/09/16 16:10,   -2.1,   -2.1,   -2.1,   -1.5,   -1.0,   -0.8,   -0.7,  999.0,   -0.5,   -0.5,   -0.2,   -0.2,   -0.2,    0.4,    0.2,    0.3,    0.1,    0.2,    0.4,  999.0,   -0.1,   -0.0,  999.0,  999.0,   -0.1,    0.0,   -0.1,  999.0,    0.0,    0.0,  999.0,   -0.2,   -0.4,   -0.1,  999.0,    0.1,    0.5,   -1.8,   -1.1,   -0.8,   -0.8,   -0.9,   -0.9,   -0.9,  999.0,   -0.6,   -0.7
1999/09/16 16:20,   -1.3,   -1.0,   -1.2,   -1.1,   -0.9,   -0.9,   -0.0,    0.0,   -0.1,   -0.3,   -0.4,   -0.6,   -0.4,   -0.1,    0.2,    0.0,    0.2,    0.4,    0.0,   -0.2,    0.2,    0.2,    0.1,   -0.1,    0.1,    0.4,  999.0,  999.0,    0.3,    0.1,  999.0,  999.0,    0.2,    0.2,   -0.0,    0.2,   -1.0,   -1.1,   -0.8,   -1.0,   -0.9,   -0.9,   -0.9,   -0.9,   -0.7,   -0.7,   -0.6
1999/09/16 16:30,   -1.6,   -1.6,   -1.1,   -1.3,   -1.0,   -1.1,   -1.2,   -0.4,   -0.2,   -0.3,   -0.9,   -0.7,   -0.8,   -0.1,   -0.8,   -0.7,  999.0,  999.0,    0.1,  999.0,   -1.2,    0.0,   -1.1,   -0.1,    0.3,    0.4,   -0.1,   -1.6,   -1.6,  999.0,  999.0,   -1.4,  999.0,  999.0,  999.0,   -1.9,   -1.6,   -1.9,   -1.1,   -1.2,   -1.3,   -1.0,   -0.8,   -0.9,  999.0,  999.0,  999.0
1999/09/16 16:40,   -1.3,   -1.3,   -1.1,   -0.9,   -0.9,   -1.2,   -0.5,   -0.4,   -0.1,   -0.6,   -0.3,  999.0,   -0.2,  999.0,  999.0,   -1.0,  999.0,  999.0,   -0.1,   -0.2,  999.0,    0.2,   -0.4,    0.0,    0.2,  999.0,   -1.4,   -1.3,   -0.5,   -1.3,   -1.2,   -1.1,   -1.1,   -1.1,  999.0,   -1.4,   -1.2,  999.0,   -1.4,   -1.4,   -1.3,   -0.9,   -1.0,   -0.8,  999.0,  999.0,  999.0
1999/09/16 16:50,   -1.3,   -1.2,   -1.1,   -1.0,   -2.3,   -0.5,   -1.2,   -1.1,   -0.2,   -1.3,   -1.7,   -1.3,  999.0,   -1.6,   -0.4,   -0.5,   -0.2,   -0.5,   -0.3,   -1.1,   -0.5,    0.0,   -0.3,    0.1,   -0.0,   -0.0,   -0.2,   -0.6,   -0.4,  999.0,  999.0,  999.0,   -1.1,   -1.0,   -0.9,   -1.2,   -1.1,  999.0,   -0.9,   -1.5,   -1.1,   -0.9,   -0.7,   -0.2,  999.0,  999.0,  999.0
1999/09/16 17:00,   -2.8,   -3.4,   -2.6,  999.0,   -2.2,   -2.8,   -1.5,   -3.2,   -5.7,   -3.6,   -3.1,   -2.7,  999.0,   -0.3,  999.0,  999.0,   -0.3,  999.0,  999.0,  999.0,  999.0,   -0.4,  999.0,   -0.1,   -0.7,   -1.0,   -1.0,  999.0,  999.0,  999.0,  999.0,  999.0,  999.0,  999.0,  999.0,  999.0,  999.0,  999.0,  999.0,   -1.1,   -0.6,   -0.2,   -0.5,   -0.1,  999.0,  999.0,  999.0
1999/09/16 17:10,   -5.3,   -4.4,   -4.7,   -3.4,   -2.7,   -2.1,   -1.0,    0.2,   -0.0,    0.1,    0.0,   -2.3,   -0.1,   -6.5,    0.2,    0.2,    0.3,    0.3,    0.1,  999.0,  999.0,  999.0,  999.0,   -0.4,   -1.1,   -1.3,   -0.9,   -0.6,   -0.3,  999.0,  999.0,  999.0,  999.0,  999.0,  999.0,  999.0,  999.0,  999.0,  999.0,    0.1,   -1.0,   -0.7,   -0.3,   -0.6,  999.0,  999.0,  999.0
1999/09/16 17:20,  999.0,   -1.2,   -1.1,   -1.3,   -3.4,   -2.1,   -1.6,   -1.2,   -0.7,   -0.1,   -0.6,   -0.6,   -0.5,   -0.2,    0.1,    0.1,    0.1,   -0.1,  999.0,   -0.0,  999.0,   -0.1,  999.0,  999.0,    0.0,  999.0,   -0.1,  999.0,    0.4,  999.0,  999.0,  999.0,    0.5,  999.0,    0.5,  999.0,  999.0,  999.0,  999.0,   -0.7,  999.0,   -0.7,   -0.6,   -0.5,  999.0,  999.0,  999.0
1999/09/16 17:30,  999.0,   -2.9,   -3.0,   -4.0,   -2.2,   -2.4,   -2.8,   -2.1,   -1.6,   -2.1,   -2.0,   -1.4,   -0.8,   -0.4,   -0.2,    0.1,  999.0,  999.0,    0.1,    0.0,    0.0,   -0.2,  999.0,    0.1,    0.2,    0.1,    0.1,   -0.0,   -0.0,    0.1,  999.0,  999.0,  999.0,  999.0,  999.0,  999.0,  999.0,  999.0,    0.1,  999.0,  999.0,  999.0,  999.0,  999.0,  999.0,  999.0,  999.0
1999/09/16 17:40,   -1.8,   -1.6,   -0.7,   -1.8,   -0.8,   -0.8,   -1.6,   -1.2,   -0.9,   -0.5,   -0.3,   -0.1,   -0.1,   -0.0,  999.0,    0.0,   -0.1,  999.0,   -0.0,   -0.2,   -0.2,   -0.2,    0.0,    0.0,    0.1,    0.2,    0.0,    0.0,   -0.0,    0.1,  999.0,  999.0,  999.0,  999.0,  999.0,  999.0,  999.0,  999.0,  999.0,    0.1,  999.0,  999.0,  999.0,  999.0,  999.0,  999.0,  999.0
1999/09/16 17:50,  999.0,    0.3,    0.2,    0.2,   -1.0,   -0.7,   -0.5,   -0.2,   -0.2,   -0.2,   -0.1,    0.3,    0.2,    0.3,    0.3,  999.0,  999.0,  999.0,  999.0,   -0.1,  999.0,   -0.1,  999.0,  999.0,   -0.1,    0.2,  999.0,    0.3,  999.0,  999.0,  999.0,  999.0,  999.0,  999.0,  999.0,  999.0,  999.0,  999.0,  999.0,  999.0,   -1.2,  999.0,  999.0,  999.0,  999.0,  999.0,  999.0
1999/09/16 18:00,   -0.1,   -0.1,   -0.0,    0.0,    0.1,    0.2,    0.1,    0.3,  999.0,   -0.2,    0.3,    0.1,    0.1,    0.3,    0.0,    0.1,    0.1,    0.0,    0.2,    0.0,    0.1,    0.1,    0.1,    0.1,    0.1,    0.0,    0.0,    0.0,  999.0,  999.0,  999.0,  999.0,  999.0,  999.0,  999.0,  999.0,  999.0,  999.0,  999.0,   -1.1,   -1.1,  999.0,  999.0,  999.0,  999.0,  999.0,  999.0
1999/09/16 18:10,  999.0,  999.0,   -0.1,   -0.1,   -0.1,   -0.0,  999.0,    0.5,  999.0,   -0.1,   -0.1,   -0.3,    0.0,  999.0,  999.0,  999.0,    0.2,    0.2,    0.2,   -0.1,  999.0,   -0.0,    0.0,  999.0,   -0.0,   -0.0,   -0.1,    0.0,  999.0,  999.0,  999.0,  999.0,  999.0,  999.0,  999.0,  999.0,  999.0,  999.0,  999.0,  999.0,  999.0,  999.0,  999.0,  999.0,  999.0,   -0.0,  999.0
1999/09/16 18:20,  999.0,    0.0,    0.0,    1.0,  999.0,    0.1,   -0.1,   -0.5,   -0.5,   -0.1,  999.0,   -0.3,   -0.2,  999.0,  999.0,  999.0,  999.0,    0.1,    0.2,    0.3,    0.2,  999.0,  999.0,  999.0,    0.0,    0.1,   -0.0,  999.0,  999.0,  999.0,  999.0,  999.0,  999.0,  999.0,  999.0,  999.0,  999.0,  999.0,  999.0,  999.0,   -0.2,  999.0,  999.0,   -0.6,  999.0,  999.0,  999.0
1999/09/16 18:30,   -0.2,    0.6,  999.0,    0.1,    0.0,    0.1,   -0.0,   -0.2,   -0.1,   -0.1,  999.0,  999.0,   -0.1,   -0.2,   -0.2,  999.0,   -0.1,   -0.2,   -0.0,    0.1,   -0.0,    0.3,  999.0,   -0.1,   -0.2,   -0.0,    0.0,  999.0,   -0.2,  999.0,  999.0,  999.0,  999.0,  999.0,  999.0,  999.0,  999.0,  999.0,  999.0,   -0.5,  999.0,  999.0,  999.0,  999.0,  999.0,  999.0,  999.0
1999/09/16 18:40,  999.0,   -0.5,  999.0,   -1.5,   -0.9,   -0.5,    0.3,    0.3,  999.0,    0.2,  999.0,    0.1,   -0.2,   -0.2,   -0.2,   -0.2,   -0.0,    0.2,    0.2,  999.0,    0.2,  999.0,  999.0,  999.0,    0.2,   -0.1,   -0.1,  999.0,  999.0,  999.0,  999.0,  999.0,  999.0,  999.0,  999.0,  999.0,  999.0,  999.0,  999.0,    0.3,  999.0,   -0.9,  999.0,  999.0,  999.0,  999.0,  999.0
1999/09/16 18:50,    0.2,   -0.2,   -1.7,   -0.9,   -0.7,   -0.1,    0.1,   -0.2,   -0.2,   -0.0,    0.1,    0.2,    0.2,  999.0,    0.2,    0.3,    0.2,  999.0,   -0.1,   -0.2,   -0.1,  999.0,  999.0,   -0.1,   -0.1,   -0.1,   -0.2,  999.0,  999.0,    0.1,    0.1,   -0.2,  999.0,  999.0,  999.0,  999.0,  999.0,  999.0,    0.2,  999.0,  999.0,  999.0,  999.0,  999.0,  999.0,  999.0,  999.0
1999/09/16 19:00,  999.0,    0.3,   -0.1,   -0.2,  999.0,    0.7,    0.1,  999.0,    0.2,  999.0,    0.3,    0.3,  999.0,    0.3,    0.3,    0.1,  999.0,   -0.3,   -0.3,  999.0,  999.0,  999.0,  999.0,   -0.1,   -0.4,  999.0,   -0.2,  999.0,  999.0,    0.0,  999.0,  999.0,  999.0,  999.0,  999.0,  999.0,  999.0,  999.0,    0.5,    0.0,  999.0,  999.0,  999.0,  999.0,  999.0,  999.0,  999.0
1999/09/16 19:10,   -0.1,   -0.1,  999.0,    0.1,    0.3,    0.2,  999.0,    0.2,  999.0,    0.1,    0.3,    0.3,    0.3,    0.4,    0.4,    0.2,    0.1,  999.0,   -0.1,  999.0,  999.0,  999.0,  999.0,  999.0,  999.0,   -0.2,  999.0,  999.0,  999.0,   -0.1,    0.1,  999.0,  999.0,  999.0,  999.0,  999.0,  999.0,  999.0,  999.0,   -0.0,  999.0,  999.0,  999.0,  999.0,  999.0,  999.0,  999.0
1999/09/16 19:20,   -0.4,   -0.2,    0.4,    0.4,   -0.1,   -0.0,   -0.3,   -0.3,   -0.2,   -0.0,    0.1,  999.0,    0.3,   -0.5,  999.0,   -0.1,    0.1,    0.1,    0.2,  999.0,  999.0,  999.0,    0.0,    0.1,    0.0,  999.0,  999.0,    0.1,    0.2,    0.0,    0.2,  999.0,  999.0,  999.0,  999.0,  999.0,  999.0,  999.0,  999.0,  999.0,   -0.9,  999.0,  999.0,  999.0,  999.0,  999.0,  999.0
1999/09/16 19:30,  999.0,  999.0,    0.4,  999.0,   -0.6,  999.0,   -0.2,   -0.0,   -0.4,   -0.2,  999.0,    0.1,   -0.1,   -0.3,   -0.3,    0.1,   -0.2,   -0.2,  999.0,  999.0,  999.0,  999.0,   -0.1,   -0.2,  999.0,  999.0,   -0.1,  999.0,  999.0,   -0.0,  999.0,  999.0,  999.0,  999.0,  999.0,  999.0,  999.0,  999.0,  999.0,  999.0,  999.0,  999.0,  999.0,  999.0,  999.0,  999.0,  999.0
1999/09/16 19:40,   -0.5,   -0.3,   -0.2,  999.0,    0.2,    0.1,   -0.1,   -0.1,    0.0,    0.1,  999.0,    0.2,    0.1,    0.1,    0.1,    0.2,    0.0,    0.0,  999.0,  999.0,  999.0,    0.1,   -0.1,    0.1,   -0.3,    0.1,   -0.2,   -0.2,  999.0,  999.0,  999.0,  999.0,  999.0,  999.0,  999.0,  999.0,  999.0,  999.0,  999.0,    0.1,  999.0,  999.0,  999.0,  999.0,  999.0,  999.0,  999.0
1999/09/16 19:50,  999.0,    0.2,    0.2,   -0.0,    0.3,    0.0,   -0.2,   -0.6,   -0.6,   -0.4,  999.0,  999.0,  999.0,    0.1,  999.0,    0.1,    0.0,  999.0,    0.1,  999.0,  999.0,    0.2,    0.2,    0.2,    0.2,  999.0,    0.0,  999.0,  999.0,  999.0,  999.0,  999.0,  999.0,  999.0,  999.0,  999.0,    0.2,  999.0,  999.0,  999.0,  999.0,   -0.2,  999.0,  999.0,  999.0,  999.0,  999.0
1999/09/16 20:00,   -0.1,    0.0,    0.4,    0.5,    0.1,  999.0,   -0.3,   -0.2,   -0.1,  999.0,  999.0,   -0.1,   -0.1,  999.0,   -0.1,    0.0,  999.0,  999.0,  999.0,  999.0,  999.0,    0.3,    0.4,    0.3,    0.3,  999.0,    0.2,    0.2,  999.0,  999.0,  999.0,  999.0,  999.0,  999.0,  999.0,  999.0,  999.0,  999.0,  999.0,    0.6,    0.2,    0.0,   -0.3,  999.0,  999.0,  999.0,  999.0
1999/09/16 20:10,   -0.5,    0.0,    0.0,    0.2,   -0.0,   -0.1,   -0.0,   -0.1,   -0.2,   -0.2,   -0.2,   -0.1,   -0.1,   -0.3,   -0.3,    0.0,  999.0,    0.2,  999.0,  999.0,  999.0,  999.0,   -0.1,  999.0,   -0.6,    0.0,  999.0,  999.0,  999.0,  999.0,  999.0,  999.0,  999.0,  999.0,  999.0,  999.0,  999.0,  999.0,  999.0,   -0.2,  999.0,   -0.1,    0.0,  999.0,  999.0,  999.0,  999.0
1999/09/16 20:20,   -0.4,   -0.5,   -0.0,    0.3,    0.1,    0.0,   -0.3,   -0.1,   -0.1,   -0.5,   -0.2,   -0.2,   -0.4,   -0.3,  999.0,  999.0,   -0.2,   -0.5,   -0.1,  999.0,   -0.3,   -0.2,   -0.2,    0.1,  999.0,   -0.3,  999.0,  999.0,  999.0,  999.0,  999.0,  999.0,  999.0,  999.0,  999.0,  999.0,  999.0,  999.0,   -0.0,  999.0,  999.0,    0.0,  999.0,  999.0,  999.0,  999.0,  999.0
1999/09/16 20:30,    0.3,    0.1,    0.1,    0.0,   -0.1,   -0.2,   -0.0,  999.0,   -0.0,   -0.1,   -0.1,   -0.2,   -0.2,   -0.2,   -0.3,   -0.2,  999.0,  999.0,  999.0,  999.0,  999.0,  999.0,    0.1,    0.3,    0.2,    0.2,    0.2,  999.0,  999.0,  999.0,  999.0,  999.0,  999.0,  999.0,  999.0,  999.0,  999.0,  999.0,  999.0,  999.0,  999.0,   -0.4,   -0.9,   -1.0,   -0.2,  999.0,  999.0
1999/09/16 20:40,   -0.1,   -0.2,    0.1,   -0.2,   -0.2,   -0.4,   -0.1,   -0.2,   -0.3,    0.0,   -0.1,   -0.1,   -0.1,   -0.2,  999.0,  999.0,    0.1,  999.0,    4.1,    0.0,  999.0,   -0.1,  999.0,    0.1,   -0.2,  999.0,    0.1,  999.0,  999.0,  999.0,  999.0,  999.0,  999.0,  999.0,  999.0,  999.0,  999.0,  999.0,  999.0,  999.0,   -0.2,   -0.0,  999.0,  999.0,  999.0,  999.0,  999.0
1999/09/16 20:50,  999.0,  999.0,   -0.0,   -0.2,   -0.0,    0.0,  999.0,    0.3,   -1.0,    0.1,    0.1,    0.1,    0.2,   -0.1,  999.0,  999.0,   -0.1,  999.0,  999.0,  999.0,  999.0,  999.0,  999.0,   -0.1,   -0.2,  999.0,  999.0,  999.0,  999.0,  999.0,  999.0,  999.0,  999.0,  999.0,  999.0,  999.0,  999.0,  999.0,  999.0,  999.0,   -0.3,   -0.5,   -0.8,  999.0,  999.0,  999.0,  999.0
1999/09/16 21:00,    0.5,   -0.6,   -0.2,   -0.4,   -0.3,   -0.3,    0.3,    0.0,    0.2,  999.0,    0.3,    0.0,    0.0,   -0.1,   -0.2,   -0.1,   -0.2,  999.0,   -0.3,  999.0,  999.0,    0.2,  999.0,    0.1,  999.0,  999.0,  999.0,  999.0,  999.0,  999.0,  999.0,  999.0,  999.0,  999.0,  999.0,  999.0,  999.0,  999.0,  999.0,  999.0,  999.0,   -0.5,   -0.6,   -0.6,  999.0,  999.0,  999.0
1999/09/16 21:10,  999.0,   -0.4,  999.0,   -0.3,   -0.4,   -0.2,   -0.3,   -0.2,   -0.1,   -0.1,    0.0,   -0.1,    0.0,   -0.1,  999.0,  999.0,   -0.1,  999.0,  999.0,  999.0,  999.0,   -0.1,  999.0,  999.0,  999.0,  999.0,  999.0,  999.0,  999.0,  999.0,  999.0,  999.0,  999.0,  999.0,  999.0,  999.0,  999.0,  999.0,  999.0,  999.0,  999.0,   -0.1,   -0.5,   -0.4,   -0.4,  999.0,  999.0
1999/09/16 21:20,    0.3,   -1.0,   -0.1,  999.0,    0.0,   -0.3,   -0.3,   -0.9,   -0.7,   -0.7,   -0.2,   -0.1,   -0.1,   -0.2,    0.0,   -0.1,   -0.2,   -0.2,   -0.0,  999.0,  999.0,   -0.1,  999.0,  999.0,  999.0,  999.0,  999.0,  999.0,  999.0,  999.0,  999.0,  999.0,  999.0,  999.0,  999.0,  999.0,  999.0,  999.0,  999.0,  999.0,  999.0,  999.0,  999.0,   -0.6,  999.0,  999.0,  999.0
1999/09/16 21:30,    0.0,   -0.5,   -0.0,    0.1,    0.1,   -0.2,   -0.2,   -0.2,   -0.5,   -0.0,  999.0,    0.1,   -0.1,   -0.1,   -0.1,   -0.0,  999.0,    0.0,  999.0,    0.1,  999.0,  999.0,  999.0,  999.0,  999.0,  999.0,  999.0,  999.0,  999.0,  999.0,  999.0,  999.0,  999.0,  999.0,  999.0,  999.0,  999.0,  999.0,  999.0,  999.0,  999.0,  999.0,  999.0,  999.0,   -0.3,  999.0,  999.0
1999/09/16 21:40,  999.0,   -0.2,   -1.4,   -0.1,   -0.1,    0.3,   -0.3,   -0.4,    0.3,   -0.1,    0.2,    0.2,    0.1,  999.0,    0.2,   -0.0,  999.0,   -0.1,  999.0,   -0.2,  999.0,  999.0,  999.0,  999.0,  999.0,  999.0,  999.0,  999.0,  999.0,  999.0,  999.0,  999.0,  999.0,  999.0,  999.0,    0.0,    0.1,  999.0,  999.0,  999.0,  999.0,  999.0,  999.0,  999.0,  999.0,  999.0,  999.0
1999/09/16 21:50,  999.0,   -0.5,   -0.2,    0.0,    0.3,    0.1,    0.3,    0.3,    0.1,  999.0,    0.1,    0.0,    0.0,    0.1,    0.1,  999.0,   -0.2,    0.2,  999.0,  999.0,   -0.1,    0.0,  999.0,  999.0,  999.0,  999.0,  999.0,  999.0,  999.0,  999.0,  999.0,  999.0,  999.0,  999.0,  999.0,  999.0,  999.0,  999.0,  999.0,  999.0,  999.0,    0.5,  999.0,  999.0,  999.0,  999.0,  999.0
1999/09/16 22:00,  999.0,  999.0,  999.0,   -0.9,  999.0,    0.3,    0.3,    0.0,   -0.0,    0.0,   -0.0,  999.0,  999.0,    0.1,    0.0,    0.0,    0.1,    0.1,  999.0,    0.3,    0.1,    0.2,    0.2,  999.0,  999.0,  999.0,  999.0,  999.0,  999.0,  999.0,  999.0,  999.0,  999.0,  999.0,  999.0,  999.0,  999.0,  999.0,  999.0,  999.0,  999.0,  999.0,  999.0,  999.0,  999.0,  999.0,  999.0
1999/09/16 22:10,    0.2,  999.0,  999.0,    0.3,   -0.0,    0.2,  999.0,    0.3,    0.3,    0.3,   -0.1,   -0.3,   -0.2,   -0.3,   -0.3,  999.0,   -0.1,  999.0,  999.0,  999.0,  999.0,   -0.0,   -0.2,  999.0,  999.0,  999.0,  999.0,  999.0,  999.0,  999.0,  999.0,  999.0,  999.0,  999.0,  999.0,  999.0,  999.0,  999.0,  999.0,  999.0,  999.0,  999.0,  999.0,  999.0,  999.0,  999.0,  999.0
1999/09/16 22:20,   -0.2,   -1.0,  999.0,    0.1,  999.0,  999.0,   -0.4,    0.0,   -0.4,   -0.3,   -0.1,   -0.1,   -0.0,    0.0,   -0.0,   -0.1,    0.2,    0.0,  999.0,  999.0,  999.0,    0.7,  999.0,  999.0,  999.0,  999.0,  999.0,  999.0,  999.0,  999.0,  999.0,  999.0,  999.0,  999.0,  999.0,  999.0,  999.0,  999.0,  999.0,    0.0,   -0.7,   -1.2,   -0.5,  999.0,   -0.5,    0.0,  999.0
1999/09/16 22:30,   -0.1,    0.2,    0.3,    0.7,    0.9,  999.0,    0.1,   -0.1,    0.1,   -0.0,  999.0,    0.0,    0.1,    0.1,    0.1,   -0.0,    0.2,  999.0,  999.0,  999.0,  999.0,    0.2,  999.0,   -0.0,  999.0,  999.0,  999.0,  999.0,  999.0,  999.0,  999.0,  999.0,  999.0,  999.0,  999.0,  999.0,  999.0,  999.0,  999.0,    0.0,   -0.3,  999.0,   -0.6,  999.0,  999.0,  999.0,  999.0
1999/09/16 22:40,  999.0,   -0.8,   -0.2,   -0.1,  999.0,   -0.2,    0.3,   -0.2,   -0.4,   -0.0,   -0.3,   -0.1,   -0.0,   -0.2,   -0.0,   -0.1,   -0.1,   -0.3,  999.0,    0.2,  999.0,  999.0,  999.0,  999.0,  999.0,  999.0,  999.0,  999.0,  999.0,  999.0,  999.0,  999.0,  999.0,  999.0,  999.0,  999.0,  999.0,  999.0,  999.0,  999.0,  999.0,  999.0,  999.0,  999.0,  999.0,  999.0,  999.0
1999/09/16 22:50,   -0.6,    0.0,    0.1,    0.1,   -0.5,   -0.1,   -0.0,    0.1,   -0.3,  999.0,    0.5,    0.1,    0.1,    0.1,  999.0,  999.0,  999.0,    0.1,  999.0,  999.0,  999.0,  999.0,  999.0,  999.0,  999.0,  999.0,  999.0,  999.0,  999.0,  999.0,  999.0,  999.0,  999.0,  999.0,  999.0,  999.0,  999.0,  999.0,  999.0,    0.1,  999.0,  999.0,   -0.8,  999.0,   -0.5,  999.0,  999.0
1999/09/16 23:00,  999.0,  999.0,   -0.0,   -0.1,   -0.1,  999.0,   -0.4,   -0.0,   -0.1,    0.1,    0.3,  999.0,    0.1,    0.2,    0.2,    0.1,  999.0,    0.1,  999.0,    0.0,  999.0,  999.0,   -0.1,  999.0,  999.0,  999.0,  999.0,  999.0,  999.0,  999.0,  999.0,  999.0,  999.0,  999.0,  999.0,  999.0,  999.0,  999.0,  999.0,  999.0,  999.0,  999.0,   -0.4,   -0.4,   -0.8,   -0.6,  999.0
1999/09/16 23:10,  999.0,    0.1,  999.0,  999.0,   -0.1,   -0.4,   -0.3,   -0.4,  999.0,    0.1,    0.6,    0.1,  999.0,  999.0,   -0.0,  999.0,   -0.0,    0.2,  999.0,  999.0,  999.0,  999.0,   -0.2,  999.0,  999.0,  999.0,  999.0,  999.0,  999.0,  999.0,  999.0,  999.0,  999.0,  999.0,  999.0,  999.0,  999.0,  999.0,  999.0,  999.0,  999.0,  999.0,   -0.6,  999.0,  999.0,  999.0,   -0.4
1999/09/16 23:20,    0.1,  999.0,    0.1,  999.0,  999.0,   -0.0,  999.0,   -0.2,   -0.2,  999.0,  999.0,    0.1,   -0.1,  999.0,   -0.1,   -0.1,   -0.2,  999.0,  999.0,   -0.3,  999.0,  999.0,   -0.1,  999.0,  999.0,  999.0,  999.0,  999.0,  999.0,  999.0,  999.0,  999.0,  999.0,  999.0,  999.0,  999.0,  999.0,  999.0,  999.0,  999.0,  999.0,  999.0,  999.0,  999.0,  999.0,   -0.2,   -0.5
1999/09/16 23:30,    0.0,    0.0,    0.2,    0.1,   -0.0,    0.1,   -0.0,  999.0,   -0.1,  999.0,   -0.0,   -0.0,   -0.1,   -0.1,   -0.2,   -0.2,   -0.3,  999.0,  999.0,  999.0,  999.0,    0.1,   -0.2,  999.0,  999.0,  999.0,  999.0,  999.0,  999.0,  999.0,  999.0,  999.0,  999.0,  999.0,  999.0,  999.0,  999.0,  999.0,  999.0,  999.0,  999.0,  999.0,  999.0,  999.0,  999.0,  999.0,  999.0
1999/09/16 23:40,    0.1,  999.0,  999.0,    0.0,  999.0,    0.0,    0.1,    0.1,    0.1,   -0.1,    0.1,   -0.0,    0.2,    0.1,  999.0,    0.1,    0.1,  999.0,  999.0,   -0.4,  999.0,   -0.0,  999.0,  999.0,  999.0,  999.0,  999.0,  999.0,  999.0,  999.0,  999.0,  999.0,  999.0,  999.0,  999.0,  999.0,  999.0,  999.0,  999.0,  999.0,   -0.3,  999.0,  999.0,  999.0,   -0.6,  999.0,   -0.2
1999/09/16 23:50,   -0.3,    0.0,  999.0,    0.0,   -0.2,    0.0,    0.1,  999.0,  999.0,   -0.4,  999.0,    0.1,   -0.0,    0.2,    0.1,    0.1,  999.0,  999.0,  999.0,  999.0,  999.0,  999.0,   -0.0,  999.0,  999.0,  999.0,  999.0,  999.0,  999.0,  999.0,  999.0,  999.0,  999.0,  999.0,  999.0,  999.0,  999.0,  999.0,  999.0,  999.0,  999.0,  999.0,  999.0,  999.0,   -1.0,   -0.7,   -0.2
